Location: Kutna Hora
(49.9500°N, 15.2670°E)
Time: 18:14:43
(UTC+02:00)

ISS - Pass Details

Date: 02 April 2019
Orbit: 408 x 410 km, 51.6° (Epoch: 20 April)

Event Time Altitude Azimuth Distance (km) Brightness Sun altitude
Rises 22:33:03 0° 284° (WNW) 2,339 0.9 -26.2°
Reaches altitude 10° 22:35:32 10° 265° (W) 1,474 -0.6 -26.5°
Enters shadow 22:35:49 11° 262° (W) 1,397 -0.7 -26.5°
